[[{"header":{"parameterUnit":"m.s-1","parameterCategory":1,"la1":30.2991,"la2":30.254,"lo1":-89.0895,"lo2":-89.0444,"dy":0.0017,"dx":0.0017,"nx":28,"ny":28,"refTime":"2023-09-30T03:00:00:Z","depth":0,"parameterNumber":2,"parameterNumberName":"U-component_of_WINDS"},"data":[0,0,0,0,0,0,0,0,0,0,0,0,0,0,0,0,0,0,0,0,0,0,0,0,0,0,0,0,0,0,0,0,0,0,0,0,0,0,0,0,0,0,0,0,0,0,0,0,0,0,0,0,0,0,0,0,0,0,-5.5716,-5.5716,0,-5.5714,-5.5714,-5.5714,-5.5613,-5.5611,-5.5608,-5.5606,-5.5604,-5.5606,-5.5609,0,0,0,0,0,0,0,0,0,0,0,0,0,-5.5633,-5.5635,-5.5716,-5.5716,-5.5716,-5.5714,-5.5714,-5.5714,-5.5614,-5.5611,-5.5607,-5.5604,-5.5603,-5.5606,-5.5609,0,0,0,0,0,0,0,0,0,0,0,0,0,-5.5654,-5.5635,-5.5716,-5.5666,-5.5661,-5.5714,-5.5714,-5.5714,-5.5614,-5.561,-5.5607,-5.5603,-5.5602,-5.5606,-5.5609,-5.5711,0,0,-5.562,-5.5622,0,0,0,0,0,0,0,0,-5.5653,-5.5657,-5.5673,-5.5669,-5.5664,-5.566,-5.5684,-5.5713,-5.5615,-5.5632,-5.5605,-5.5601,-5.5626,-5.5627,-5.5636,-5.5711,-5.5711,-5.5621,-5.5623,-5.5625,-5.5626,0,0,0,0,0,0,0,-5.5651,-5.5656,-5.5715,-5.5673,-5.5668,-5.5643,-5.5642,-5.5689,-5.5651,-5.563,-5.5623,-5.5624,-5.5623,-5.5632,-5.5635,-5.5711,-5.5621,-5.5624,-5.5626,-5.5628,-5.5871,-5.5875,0,0,0,0,0,0,-5.5657,-5.5656,-5.5715,-5.5715,-5.5649,-5.5648,-5.5646,-5.5665,-5.565,-5.5644,-5.5628,-5.562,-5.5628,-5.5631,-5.5634,-5.5753,-5.5624,-5.5628,-5.563,-5.5867,-5.5872,-5.5876,0,0,0,0,0,0,-5.5655,-5.5663,-5.5715,-5.5684,-5.5688,-5.5654,-5.5676,-5.5667,-5.5677,-5.5648,-5.5641,-5.5645,-5.5625,-5.5629,-5.5693,-5.5752,-5.5629,-5.5633,-5.5861,-5.5868,-5.5874,-5.5992,0,0,0,0,0,0,-5.5653,-5.5663,-5.5701,-5.5685,-5.569,-5.5774,-5.5679,-5.567,-5.5683,-5.5673,-5.5662,-5.5657,-5.5622,-5.5688,-5.5697,-5.5755,-5.5636,-5.5856,-5.5864,-5.5872,-5.5982,-5.6001,-5.6017,0,0,0,0,0,-5.5651,-5.5734,-5.5703,-5.5711,-5.5737,-5.5777,-5.578,-5.5739,-5.5689,-5.5727,-5.5709,-5.5657,-5.5744,-5.5696,-5.5704,-5.5764,-5.5852,-5.5862,-5.5871,-5.5974,-5.5998,-5.6017,0,0,0,0,0,0,-5.5757,-5.5731,-5.5697,-5.5777,-5.578,-5.576,-5.5807,-5.5765,-5.5782,-5.5772,-5.572,-5.5719,-5.5791,-5.5783,-5.573,-5.5863,-5.5789,-5.5801,-5.5865,-5.5886,-5.5904,-5.5904,-5.5639,0,0,0,0,0,-5.579,-5.5824,-5.58,-5.5873,-5.5876,-5.5842,-5.5858,-5.5826,-5.5827,-5.5828,-5.5814,-5.5818,-5.5846,-5.5866,-5.589,-5.5981,-5.5978,-5.6027,-5.6044,-5.6059,-5.607,-5.6119,-5.6141,-5.5908,-5.5908,-5.5908,0,0,-5.5857,-5.5847,-5.5872,-5.5894,-5.5893,-5.5931,-5.5844,-5.5887,-5.5915,-5.5835,-5.5894,-5.5885,-5.5885,-5.5964,-5.5997,-5.596,-5.6133,-5.6071,-5.6083,-5.6086,-5.6131,-5.6153,-5.6173,-5.5915,-5.5913,-5.5912,0,0,-5.6,-5.5996,-5.6057,-5.6058,-5.6058,-5.6035,-5.605,-5.6037,-5.6028,-5.6087,-5.6028,-5.606,-5.611,-5.6113,-5.6121,-5.6268,-5.6222,-5.6277,-5.6369,-5.6418,-5.6436,-5.6452,-5.6506,-5.6526,-5.6288,-5.6289,-5.6289,0,-5.6085,-5.6139,-5.6094,-5.6142,-5.6154,-5.6084,-5.6146,-5.6149,-5.6157,-5.6167,-5.6125,-5.6187,-5.6182,-5.6261,-5.6297,-5.6305,-5.6322,-5.6278,-5.6437,-5.6453,-5.6467,-5.6518,-5.6538,-5.6295,-5.6295,-5.6294,-5.6293,0,-5.6244,-5.6283,-5.6332,-5.6342,-5.636,-5.6414,-5.6378,-5.6401,-5.6369,-5.635,-5.6412,-5.6404,-5.6427,-5.6443,-5.6411,-5.6518,-5.6495,-5.6446,-5.6371,-5.6497,-5.6544,-5.6562,-5.6305,-5.6303,-5.6301,-5.6299,0,0,-5.6452,-5.6438,-5.6457,-5.6462,-5.6457,-5.6486,-5.6539,-5.6561,-5.6582,-5.659,-5.6634,-5.6678,-5.6633,-5.6643,-5.6611,-5.6653,-5.6772,-5.6599,-5.6598,-5.6632,-5.6891,-5.6929,-5.6952,-5.6742,-5.6745,-5.6748,-5.6892,0,-5.6592,-5.668,-5.6642,-5.6734,-5.6771,-5.6706,-5.6751,-5.6754,-5.6739,-5.6768,-5.675,-5.6783,-5.6721,-5.6727,-5.6766,-5.6749,-5.6824,-5.6738,-5.6782,-5.6784,-5.6784,-5.6976,-5.7015,-5.7151,-5.6909,-5.6912,-5.6915,0,-5.6766,-5.6782,-5.6879,-5.6869,-5.6883,-5.6925,-5.6943,-5.6971,-5.6973,-5.6959,-5.6971,-5.693,-5.6982,-5.6908,-5.6979,-5.6922,-5.6937,-5.6932,-5.6937,-5.6939,-5.6857,-5.6985,-5.7193,-5.7214,-5.6943,-5.694,-5.6938,0,-5.691,-5.6956,-5.702,-5.7025,-5.7016,-5.7047,-5.7045,-5.7043,-5.7059,-5.7075,-5.7086,-5.7108,-5.712,-5.7138,-5.7105,-5.7054,-5.7181,-5.7104,-5.7171,-5.7173,-5.7201,-5.72,-5.7416,-5.7211,-5.721,-5.721,-5.721,0,-5.7069,-5.7131,-5.7085,-5.7124,-5.7192,-5.7148,-5.7216,-5.7207,-5.7206,-5.7243,-5.7188,-5.7224,-5.7178,-5.7209,-5.7184,-5.7247,-5.7253,-5.7243,-5.7236,-5.7249,-5.725,-5.7258,-5.7248,-5.7215,-5.7214,-5.7213,-5.7212,0,-5.7241,-5.7213,-5.7278,-5.7265,-5.7263,-5.7313,-5.7302,-5.7338,-5.7319,-5.7367,-5.7376,-5.7347,-5.7382,-5.735,-5.7383,-5.7366,-5.7451,-5.7429,-5.745,-5.7445,-5.7515,-5.7509,-5.7744,-5.7773,-5.7549,-5.7551,-5.7553,0,-5.7346,-5.7392,-5.7384,-5.7405,-5.7406,-5.744,-5.7457,-5.7416,-5.7436,-5.7443,-5.7479,-5.7509,-5.7531,-5.759,-5.7572,-5.7598,-5.7577,-5.7658,-5.758,-5.7593,-5.7579,-5.7577,-5.7582,-5.7674,-5.7676,-5.7679,-5.768,0,-5.7534,-5.7518,-5.7544,-5.7567,-5.7588,-5.7604,-5.7615,-5.7635,-5.7593,-5.7619,-5.7654,-5.7671,-5.7706,-5.7737,-5.7757,-5.7755,-5.7712,-5.7705,-5.7722,-5.7736,-5.7746,-5.7743,-5.7494,-5.77,-5.7698,-5.7696,-5.7695,-5.7694,-5.7675,-5.7714,-5.7715,-5.7747,-5.7751,-5.7763,-5.7797,-5.7784,-5.7812,-5.7837,-5.7812,-5.7855,-5.7858,-5.788,-5.7884,-5.7917,-5.7883,-5.7908,-5.7914,-5.7921,-5.7932,-5.7741,-5.7921,-5.792,-5.792,-5.7919,-5.7919,0,-5.7861,-5.7859,-5.7889,-5.7907,-5.7933,-5.789,-5.79,-5.7925,-5.7963,-5.797,-5.7993,-5.8034,-5.8065,-5.805,-5.8077,-5.8107,-5.8088,-5.8116,-5.8113,-5.8114,-5.796,-5.7943,-5.8131,-5.8131,-5.8131,-5.8131,-5.8131,-5.8131,-5.7961,-5.8025,-5.801,-5.8076,-5.8073,-5.8115,-5.8125,-5.8136,-5.8141,-5.819,-5.8215,-5.8206,-5.8204,-5.8231,-5.8257,-5.8252,-5.8265,-5.83,-5.8288,-5.8145,-5.8124,-5.8104,-5.8088,-5.8303,-5.8303,-5.8439,-5.844,-5.8441]},{"header":{"parameterUnit":"m.s-1","parameterCategory":1,"la1":30.2991,"la2":30.254,"lo1":-89.0895,"lo2":-89.0444,"dy":0.0017,"dx":0.0017,"nx":28,"ny":28,"refTime":"2023-09-30T03:00:00:Z","depth":0,"parameterNumber":3,"parameterNumberName":"V-component_of_WINDS"},"data":[0,0,0,0,0,0,0,0,0,0,0,0,0,0,0,0,0,0,0,0,0,0,0,0,0,0,0,0,0,0,0,0,0,0,0,0,0,0,0,0,0,0,0,0,0,0,0,0,0,0,0,0,0,0,0,0,0,0,-0.9276,-0.9276,0,-0.9308,-0.9309,-0.9309,-0.9286,-0.9285,-0.9284,-0.9283,-0.932,-0.9322,-0.9324,0,0,0,0,0,0,0,0,0,0,0,0,0,-0.9198,-0.92,-0.9276,-0.9277,-0.9277,-0.9308,-0.9309,-0.9309,-0.9286,-0.9285,-0.9284,-0.9283,-0.9319,-0.9322,-0.9324,0,0,0,0,0,0,0,0,0,0,0,0,0,-0.9232,-0.92,-0.9276,-0.9269,-0.9269,-0.9308,-0.9309,-0.9309,-0.9287,-0.9285,-0.9284,-0.9282,-0.9319,-0.9321,-0.9324,-0.9373,0,0,-0.9333,-0.9334,0,0,0,0,0,0,0,0,-0.923,-0.9234,-0.927,-0.927,-0.927,-0.9292,-0.9295,-0.9331,-0.9287,-0.928,-0.9283,-0.9281,-0.9312,-0.9315,-0.9325,-0.9375,-0.9376,-0.9333,-0.9335,-0.9336,-0.9337,0,0,0,0,0,0,0,-0.9227,-0.9233,-0.9289,-0.927,-0.927,-0.9266,-0.9269,-0.9301,-0.9305,-0.9281,-0.9279,-0.9283,-0.9312,-0.9322,-0.9326,-0.9377,-0.9333,-0.9336,-0.9338,-0.9339,-0.947,-0.9471,0,0,0,0,0,0,-0.9225,-0.9231,-0.9288,-0.929,-0.9245,-0.9268,-0.9272,-0.9286,-0.9304,-0.9305,-0.9284,-0.9282,-0.9318,-0.9322,-0.9327,-0.9387,-0.9336,-0.9339,-0.9341,-0.9468,-0.947,-0.9472,0,0,0,0,0,0,-0.9224,-0.9231,-0.9287,-0.926,-0.9267,-0.9271,-0.9288,-0.9288,-0.9298,-0.9307,-0.9307,-0.9294,-0.9317,-0.9323,-0.9362,-0.9387,-0.934,-0.9343,-0.9466,-0.9468,-0.9471,-0.9505,0,0,0,0,0,0,-0.9222,-0.923,-0.9248,-0.9261,-0.9268,-0.932,-0.9289,-0.9289,-0.9303,-0.93,-0.9316,-0.9318,-0.9316,-0.9358,-0.9365,-0.9391,-0.9345,-0.9464,-0.9467,-0.947,-0.9502,-0.9509,-0.9515,0,0,0,0,0,-0.9219,-0.9257,-0.9249,-0.9256,-0.9291,-0.9322,-0.9326,-0.9323,-0.9305,-0.9324,-0.9329,-0.9317,-0.9383,-0.9362,-0.9369,-0.9397,-0.9462,-0.9466,-0.947,-0.9499,-0.9508,-0.9515,0,0,0,0,0,0,-0.9249,-0.9259,-0.925,-0.9293,-0.9306,-0.9318,-0.9341,-0.9331,-0.9351,-0.9348,-0.9344,-0.9348,-0.9389,-0.9396,-0.9373,-0.9445,-0.942,-0.9425,-0.944,-0.9448,-0.9454,-0.9452,-0.9348,0,0,0,0,0,-0.926,-0.9283,-0.9291,-0.9328,-0.9335,-0.9337,-0.935,-0.9346,-0.9361,-0.9367,-0.9375,-0.9391,-0.9415,-0.9431,-0.9454,-0.9502,-0.9507,-0.9525,-0.9531,-0.9536,-0.9542,-0.957,-0.9579,-0.9485,-0.9485,-0.9484,0,0,-0.9284,-0.9292,-0.9308,-0.9334,-0.9344,-0.937,-0.9342,-0.937,-0.939,-0.9371,-0.9409,-0.9415,-0.9433,-0.9477,-0.9497,-0.9484,-0.9568,-0.9541,-0.9545,-0.9548,-0.9575,-0.9584,-0.9592,-0.9487,-0.9487,-0.9486,0,0,-0.9342,-0.9349,-0.9382,-0.9392,-0.9407,-0.9408,-0.9416,-0.9428,-0.9432,-0.9469,-0.9456,-0.9479,-0.9521,-0.9534,-0.9546,-0.9608,-0.9599,-0.9615,-0.9649,-0.9677,-0.9684,-0.9691,-0.9715,-0.9723,-0.962,-0.962,-0.962,0,-0.9371,-0.9407,-0.94,-0.9429,-0.9442,-0.9425,-0.9459,-0.947,-0.9492,-0.9502,-0.9487,-0.9539,-0.9549,-0.9597,-0.9612,-0.9621,-0.9632,-0.9615,-0.9683,-0.969,-0.9696,-0.9719,-0.9728,-0.9623,-0.9622,-0.9622,-0.9622,0,-0.9443,-0.9469,-0.9493,-0.9515,-0.953,-0.9561,-0.956,-0.9576,-0.9571,-0.9573,-0.9612,-0.9623,-0.9649,-0.9659,-0.9654,-0.9707,-0.9699,-0.9683,-0.9658,-0.9707,-0.9729,-0.9738,-0.9626,-0.9625,-0.9624,-0.9624,0,0,-0.9523,-0.9538,-0.9548,-0.9558,-0.9572,-0.9593,-0.9624,-0.9647,-0.9662,-0.9678,-0.9705,-0.974,-0.9726,-0.974,-0.9736,-0.9759,-0.981,-0.9741,-0.9742,-0.9756,-0.9871,-0.9884,-0.9895,-0.9802,-0.9804,-0.9805,-0.987,0,-0.9583,-0.9636,-0.963,-0.9682,-0.9706,-0.969,-0.9717,-0.973,-0.9733,-0.9755,-0.9758,-0.9784,-0.9763,-0.9771,-0.9793,-0.9799,-0.9834,-0.9794,-0.983,-0.9832,-0.9829,-0.9906,-0.992,-0.9981,-0.9879,-0.988,-0.9881,0,-0.9661,-0.9679,-0.9732,-0.9744,-0.9754,-0.9778,-0.98,-0.982,-0.9835,-0.9835,-0.985,-0.9842,-0.9875,-0.9846,-0.9892,-0.9865,-0.9879,-0.9884,-0.9887,-0.9892,-0.9861,-0.9916,-1.0,-1.0011,-0.9894,-0.9893,-0.9892,0,-0.9717,-0.9754,-0.9791,-0.9799,-0.9813,-0.9831,-0.9838,-0.985,-0.9865,-0.9884,-0.9893,-0.9916,-0.9929,-0.9947,-0.9946,-0.9925,-0.9993,-0.9964,-0.9997,-0.9997,-1.0015,-1.0014,-1.0105,-1.0019,-1.0019,-1.0018,-1.0018,0,-0.9787,-0.9821,-0.9816,-0.9839,-0.9877,-0.987,-0.9908,-0.9913,-0.9924,-0.9949,-0.9935,-0.9959,-0.9955,-0.9979,-0.9978,-1.0017,-1.0023,-1.0026,-1.0026,-1.0029,-1.0029,-1.004,-1.0037,-1.0021,-1.002,-1.002,-1.0019,0,-0.9857,-0.9855,-0.9895,-0.9904,-0.9907,-0.9935,-0.9943,-0.9966,-0.9967,-0.9999,-1.0006,-1.0008,-1.0036,-1.0035,-1.0067,-1.0066,-1.0116,-1.0109,-1.0111,-1.011,-1.0144,-1.0142,-1.0248,-1.0262,-1.0164,-1.0165,-1.0166,0,-0.9903,-0.9929,-0.9941,-0.9956,-0.9963,-0.9988,-1.0002,-0.9996,-1.0012,-1.003,-1.0051,-1.0077,-1.0098,-1.0143,-1.0149,-1.0173,-1.0169,-1.0204,-1.0173,-1.0175,-1.0173,-1.0173,-1.0176,-1.0212,-1.0213,-1.0214,-1.0214,0,-0.9986,-0.9984,-1.0005,-1.0026,-1.0043,-1.0059,-1.0074,-1.0088,-1.0083,-1.0102,-1.0129,-1.0145,-1.0177,-1.0204,-1.0227,-1.0236,-1.0226,-1.0223,-1.0233,-1.0238,-1.0239,-1.0241,-1.0131,-1.0222,-1.0221,-1.0221,-1.022,-1.022,-1.0048,-1.007,-1.0082,-1.0106,-1.0116,-1.0131,-1.0153,-1.0156,-1.0178,-1.0203,-1.0198,-1.0229,-1.0244,-1.0274,-1.0284,-1.0309,-1.0297,-1.031,-1.0314,-1.0318,-1.0323,-1.0232,-1.0313,-1.0313,-1.0313,-1.0313,-1.0312,0,-1.0132,-1.0139,-1.0161,-1.0182,-1.0201,-1.0186,-1.0202,-1.022,-1.0248,-1.0261,-1.0281,-1.0314,-1.0339,-1.0346,-1.0371,-1.0391,-1.0387,-1.0398,-1.0398,-1.04,-1.0331,-1.0322,-1.0401,-1.0401,-1.0401,-1.0401,-1.0401,-1.0401,-1.0179,-1.0217,-1.0216,-1.0259,-1.0265,-1.0295,-1.0306,-1.0319,-1.033,-1.0366,-1.0387,-1.0391,-1.0402,-1.0428,-1.0452,-1.0453,-1.0464,-1.0478,-1.0478,-1.0414,-1.0405,-1.0397,-1.0388,-1.048,-1.048,-1.0546,-1.0546,-1.0547]}]]